Погода в Любимове

Россия / Саратовская область     51°26′19″N   47°06′06″E
темп.,
°C
ветер,
м/с
пор.,
м/с
влажн.,
%
обл.,
%
осадки,
мм/ч
давл.,
гПа
погр.,
м
24 июля, сб
сб2401:00+17сз22560 0.0 100819
04:00+16зсз33590 0.0 100824
07:00+18з34600 0.0 1009151
10:00+24зсз45415 0.0 1009961
13:00+27з6633100 0.0 10092911
16:00+26зсз873690 0.0 10101792
19:00+24зсз24427 0.0 1011782
22:00+18с37635 0.0 1013145
25 июля, вс
вс2501:00+17ссз336612 0.0 101531
04:00+16с33667 0.0 101639
07:00+18св35635 0.0 1018225
10:00+22ссв44453 0.0 10191159
13:00+25ссв343478 0.0 10192586
16:00+25с333338 0.0 10202141
19:00+24с543559 0.0 10201446
22:00+18ссв335225 0.0 102125
26 июля, пн
пн2601:00+17св345431 0.0 102251
04:00+15св336027 0.0 102326
07:00+18всв344941 0.0 1024143
10:00+22ссв333720 0.0 1024651
13:00+24с223125 0.0 10241679
16:00+26сз332821 0.0 10222495
19:00+24с55377 0.0 1022812
22:00+20св354650 0.0 102394
27 июля, вт
вт2701:00+18св335012 0.0 102348
04:00+15с22570 0.0 102311
07:00+18ссз23510 0.0 1023101
10:00+24ссз33330 0.0 10221235
13:00+27с45255 0.0 10212606
16:00+28с452517 0.0 10192989
19:00+26ссв56316 0.0 10191369
22:00+20с33460 0.0 102040
28 июля, ср
ср2801:00+19ссз33540 0.0 102031
04:00+17ссз336028 0.0 102034
07:00+20ссз22575 0.0 1019111
10:00+25ссз23435 0.0 1019886
13:00+29сз4532100 0.1 10173015
16:00+28с563396 0.2 10161755
19:00+22сз495763 0.4 1016176
22:00+20ссз23566 0.4 101615